Home   Weather   Helsingborg   Past weeks

Flag for Sweden Past Weather in Helsingborg, Sweden — Yesterday and Last 2 Weeks

Now
34 °F

Fog.


Feels Like: 34 °F
Forecast: 41 / 45 °F
Wind: 2 mph from North

Location: Ljungbyhed

Current Time: Dec 4, 2016 at 7:22:09 am

Latest Report: Dec 4, 2016 at 6:50 am


Visibility: 3 mi

Pressure: 30.24 "Hg

Humidity: 100%

Dew Point: 34 °F

Location of HelsingborgLocation

Past Weather in Helsingborg — Graph

°F

Helsingborg Temperature Yesterday

Maximum temperature yesterday: 41 °F (at 1:20 pm)
Minimum temperature yesterday: 19 °F (at 7:50 am)
Average temperature yesterday: 29 °F

High & Low Weather Summary for the Past Weeks

 TemperatureHumidityPressure
High54 °F (Nov 23, 12:20 pm)100% (Nov 19, 8:20 pm)30.45 "Hg (Nov 19, 8:20 pm)
Low19 °F (Dec 3, 7:50 am)45% (Nov 27, 2:20 pm)29.45 "Hg (Nov 20, 7:20 pm)
Average40 °F85%29.98 "Hg
* Reported Nov 19 6:20 am — Dec 4 6:20 am, Helsingborg, Weather by CustomWeather, © 2016

Note: Actual official high and low records may vary slightly from our data, if they occured in-between our weather recording intervals... More about our weather records

Advertising

Helsingborg Weather History for the Previous 24 Hours

Scroll right to see more
 ConditionsComfort  
Time TempWeatherWind HumidityBarometerVisibility
6:20 am
Sun, Dec 4
32 °FIce fog.1 mph100%30.24 "Hg4 mi
5:50 am32 °FIce fog.2 mph100%30.24 "Hg4 mi
5:20 am32 °FIce fog.1 mph93%30.27 "Hg5 mi
4:50 am30 °FIce fog.1 mph100%30.27 "Hg6 mi
4:20 am30 °FIce fog.1 mph100%30.24 "Hg6 mi
3:50 am28 °FLow clouds.2 mph100%30.24 "HgN/A
3:20 am28 °FMostly cloudy.2 mph93%30.27 "HgN/A
2:50 am27 °FOvercast.2 mph93%30.24 "HgN/A
2:20 am27 °FMostly cloudy.3 mph100%30.27 "HgN/A
1:50 am27 °FLow clouds.3 mph93%30.27 "HgN/A
1:20 am27 °FPassing clouds.3 mph93%30.24 "HgN/A
12:50 am27 °FPassing clouds.5 mph100%30.24 "HgN/A
12:20 am27 °FIce fog.2 mph100%30.24 "Hg5 mi
11:50 pm
Sat, Dec 3
27 °FPassing clouds.2 mph100%30.24 "Hg1 mi
11:20 pm28 °FIce fog.5 mph100%30.24 "Hg6 mi
10:50 pm27 °FIce fog.No wind100%30.24 "Hg0 mi
10:20 pm28 °FIce fog.No wind100%30.24 "Hg0 mi
9:50 pm28 °FPassing clouds.1 mph100%30.24 "Hg5 mi
9:20 pm30 °FPassing clouds.No wind93%30.24 "Hg0 mi
8:50 pm30 °FPassing clouds.No wind100%30.21 "HgN/A
8:20 pm32 °FIce fog.No wind100%30.21 "Hg6 mi
7:50 pm34 °FPassing clouds.1 mph93%30.21 "HgN/A
7:20 pm36 °FPartly cloudy.2 mph87%30.21 "HgN/A
6:50 pm36 °FOvercast.3 mph87%30.21 "HgN/A
6:20 pm34 °FPassing clouds.6 mph93%30.21 "HgN/A
5:50 pm36 °FOvercast.6 mph87%30.21 "HgN/A
5:20 pm36 °FOvercast.3 mph87%30.21 "HgN/A
4:50 pm36 °FPassing clouds.3 mph81%30.18 "HgN/A
4:20 pm37 °FChilly.6 mph75%30.18 "HgN/A
3:50 pm37 °FChilly.6 mph75%30.18 "HgN/A
3:20 pm37 °FChilly.8 mph75%30.18 "HgN/A
2:50 pm39 °FPassing clouds.7 mph75%30.18 "HgN/A
2:20 pm39 °FChilly.10 mph75%30.18 "HgN/A
1:50 pm39 °FChilly.12 mph75%30.18 "HgN/A
1:20 pm41 °FQuite cool.12 mph70%30.18 "HgN/A
12:50 pm39 °FChilly.10 mph75%30.18 "HgN/A
12:20 pm37 °FChilly.10 mph81%30.18 "HgN/A
11:50 am39 °FChilly.9 mph75%30.21 "HgN/A
11:20 am37 °FChilly.9 mph87%30.21 "HgN/A
10:50 am34 °FChilly.7 mph93%30.21 "HgN/A
10:20 am27 °FChilly.5 mph100%30.21 "HgN/A
9:50 am23 °FCold.6 mph100%30.21 "HgN/A
9:20 am21 °FCold.2 mph93%30.21 "HgN/A
8:50 am19 °FCold.No wind93%30.21 "HgN/A
8:20 am19 °FCold.2 mph93%30.21 "HgN/A
7:50 am19 °FIce fog.1 mph100%30.18 "Hg3 mi
7:20 am21 °FIce fog.No wind93%30.18 "Hg6 mi
Weather by CustomWeather, © 2016

See weather overviewHow to use our weather pages